Location: Newark
(49.4642°N, 2.1122°E)
Time: 00:35:38
(UTC+00:00)

AO-92 - Visible Passes

Search period start: 07 July 2020 00:00
Search period end: 17 July 2020 00:00
Orbit: 487 x 499 km, 97.4° (Epoch: 06 July)

Date Brightness Start Highest point End Pass type
(mag) Time Alt. Az. Time Alt. Az. Time Alt. Az.
07 Jul ? 21:49:17 16° S 21:51:58 56° W 21:55:34 10° NNW visible
08 Jul ? 21:27:23 15° SSE 21:30:16 80° ENE 21:33:55 10° N visible
09 Jul ? 21:05:30 12° SE 21:08:37 44° ENE 21:12:06 10° N visible
09 Jul ? 22:40:09 10° SW 22:42:28 16° W 22:44:47 10° NW visible
10 Jul ? 20:43:58 10° SE 20:47:02 26° ENE 20:50:07 10° N visible
10 Jul ? 22:18:09 14° SSW 22:20:35 27° W 22:23:45 10° NW visible
11 Jul ? 21:56:15 17° SSW 21:58:48 47° W 22:02:20 10° NNW visible
12 Jul ? 21:34:22 17° SSE 21:37:03 86° WSW 21:40:44 10° NNW visible
13 Jul ? 21:12:28 14° SSE 21:15:23 52° ENE 21:18:58 10° N visible
13 Jul ? 22:47:25 10° WSW 22:49:19 14° W 22:51:15 10° WNW visible
14 Jul ? 20:50:35 10° SE 20:53:47 30° ENE 20:57:01 10° N visible
14 Jul ? 22:25:08 13° SW 22:27:25 23° W 22:30:23 10° NW visible
15 Jul ? 20:29:36 10° ESE 20:32:13 19° ENE 20:34:51 10° NNE visible
15 Jul ? 22:03:14 18° SSW 22:05:36 39° W 22:09:03 10° NNW visible
16 Jul ? 21:41:21 19° S 21:43:50 72° WSW 21:47:30 10° NNW visible
